Regional Weather Roundup
Issued by NWS San Diego, CA

Home | Current Version | Previous Version | Text Only | Print | Product List | Glossary On
Versions: 1 2 3 4 5 6 7 8 9 10 11 12 13 14 15 16 17 18 19 20 21 22 23 24 25 26 27 28 29 30 31 32 33 34 35 36 37 38 39 40 41 42 43 44 45 46 47 48 49 50
000
ASUS46 KSGX 231110
RWRSGX

SAN DIEGO HOURLY WEATHER ROUNDUP
NATIONAL WEATHER SERVICE SAN DIEGO CA
400 AM PDT THU OCT 23 2014

NOTE: "FAIR" INDICATES FEW OR NO CLOUDS BELOW 12,000 FEET WITH NO
SIGNIFICANT WEATHER AND/OR OBSTRUCTIONS TO VISIBILITY.

CAZ042-043-060-061-PZZ750-775-231200-

GREATER SAN DIEGO AREA

CITY           SKY/WX    TMP DP  RH WIND       PRES   REMARKS
LINDBERGH FLD  CLEAR     63  59  87 CALM      29.94F
POINT LOMA       N/A     63  61  94 N2          N/A
NATIONAL CITY    N/A     61  57  87 CALM      29.93F
CHULA VISTA      N/A     58  56  93 CALM      29.87F
IMPERIAL BEACH CLEAR     58  55  90 NE3       29.93F
BROWN FIELD    CLEAR     57  53  86 E3        29.93F
MIRAMAR MCAS   CLEAR     57  51  80 E5        29.93F
MONTGOMERY FLD CLEAR     60  56  86 CALM      29.93F

$$

NORTH SAN DIEGO COUNTY

CITY           SKY/WX    TMP DP  RH WIND       PRES   REMARKS
CAMP PENDLETON CLEAR     51  45  79 CALM      29.93F
OCEANSIDE AP   CLEAR     53  51  93 CALM      29.93F
OCEANSIDE HBR    N/A     58  55  91 E6        29.95F
VISTA            N/A     55  51  88 CALM      29.92F
CARLSBAD       CLEAR     59  54  83 CALM      29.92F
DEL MAR          N/A     60  60  98 CALM      29.95F
LA JOLLA SCRIP   N/A     62  61  96 CALM      29.90F
FALLBROOK        N/A     62  49  61 CALM      29.94F
ESCONDIDO        N/A     58  50  75 CALM      29.96F
SAN MARCOS       N/A     62  54  74 CALM      29.91F
POWAY            N/A     52  48  87 CALM      29.95F

$$

EAST SAN DIEGO COUNTY

CITY           SKY/WX    TMP DP  RH WIND       PRES   REMARKS
RAMONA         CLEAR     49  40  71 CALM      29.96F
SANTEE LAKES     N/A     54  51  90 CALM      29.95F
LA MESA          N/A     62  54  73 CALM      29.87F
JAMUL            N/A     56  48  73 CALM      29.93F
DESCANSO N       N/A     58  27  29 E3        29.86F
MT. LAGUNA OBS   N/A     62  19  19 CALM      29.77F
CAMPO            N/A     46  20  35 NE8       30.01F

$$

ORANGE COUNTY AND THE LOS ANGELES BASIN

CITY           SKY/WX    TMP DP  RH WIND       PRES   REMARKS
JOHN WAYNE AP  CLEAR     65  58  78 CALM      29.92F
LAKE FOREST FR   N/A     62  43  50 CALM      29.83F
SANTA ANA        N/A     58  55  89 CALM      29.88F
HUNTINGTON BCH   N/A     56  55  95 CALM      29.95F
LOS ALAMITOS   FAIR      58  58 100 CALM      29.92F
FULLERTON      CLEAR     61  56  83 CALM      29.92F
LONG BEACH     CLEAR     62  59  90 CALM      29.92F
L.A. AP        CLEAR     62  61  96 CALM      29.93F
L.A. DOWNTOWN  CLEAR     62  57  83 CALM      29.93F

$$

THE INLAND EMPIRE

CITY           SKY/WX    TMP DP  RH WIND       PRES   REMARKS
CORONA         CLEAR     51  48  89 CALM      29.96F
CHINO          CLEAR     56  53  90 CALM      29.96F FOG
ONTARIO        PTCLDY    62  51  67 NE3       29.95F
RIVERSIDE AP   CLEAR     61  50  67 NE5       29.96F
RIV CYN CREST    N/A     62  59  91 CALM      29.94F
MORENO VALLEY    N/A     64  48  54 CALM      29.15F
MARCH ARB      CLEAR     51  44  77 CALM      29.98F
PERRIS           N/A     59  47  63 CALM      29.96F
MENIFEE          N/A     56  48  76 CALM      30.04F
HEMET EAST       N/A     66  22  19 CALM      29.95S
FRENCH VALLEY  FAIR      57  39  51 CALM      29.98F
TEMECULA         N/A     55  47  73 CALM      29.95S

$$

SAN BERNARDINO AND RIVERSIDE COUNTY MOUNTAINS

CITY           SKY/WX    TMP DP  RH WIND       PRES   REMARKS
BIG BEAR AP    CLEAR     32  16  51 CALM      30.27F
ANGELUS OAKS     N/A     53  22  30 CALM      29.92F
PINE COVE        N/A     59  14  17 CALM      29.86F

$$

SOUTHERN DESERT INCLUDING THE COACHELLA VALLEY

CITY           SKY/WX    TMP DP  RH WIND       PRES   REMARKS
PALM SPRINGS   CLEAR     73  28  18 NW9       29.94F
THOUSAND PALMS   N/A     69  39  33 W6        29.89F
PALM DESERT      N/A     67  42  40 CALM      26.06S
THERMAL        CLEAR     61  41  47 CALM      29.88F
BLYTHE         CLEAR     67  40  37 NW5       29.92F
IMPERIAL AP    CLEAR     68  42  38 W6        29.88F
EL CENTRO NAS  CLEAR     67  38  34 W8        29.89F

$$

UPPER DESERT

CITY           SKY/WX    TMP DP  RH WIND       PRES   REMARKS
VICTORVILLE AP CLEAR     55  28  35 S8        30.05F
HESPERIA         N/A     55  33  43 W3        30.12F
APPLE VALLEY     N/A     50  34  54 CALM      30.13F
PALMDALE       CLEAR     54  32  43 S3        30.04F
LANCASTER      CLEAR     47  29  49 E3        30.04F
EDWARDS AFB    CLEAR     49  24  36 N5        30.03S
DAGGETT        CLEAR     59  26  28 W9        30.02F
29 PALMS N     CLEAR     60  32  34 NW6       30.08F
NEEDLES        CLEAR     67  39  35 CALM      29.96F

$$

REGIONAL REPORTS

CITY           SKY/WX    TMP DP  RH WIND       PRES   REMARKS
SANTA BARBARA  CLEAR     57  50  77 CALM      29.92F
SANDBERG       CLEAR     67  25  20 VRB3      30.13F
MT. WILSON       N/A     59  10  14 MISG        N/A
LAS VEGAS NV   MOCLDY    63  30  28 SW7       30.00S
PHOENIX AZ     CLEAR     70  51  51 E5        29.95S
TIJUANA        CLEAR     61  54  77 CALM      29.97F

$$

OFFSHORE ISLANDS

CITY           SKY/WX    TMP DP  RH WIND       PRES   REMARKS
CATALINA ARPT  CLEAR     67  40  37 E6        29.98F
SAN NICOLAS IS CLEAR    N/A N/A N/A SE5       29.93F

$$

MARINE AND OFFSHORE BUOY REPORTS

STATION/POSITION SKY/WX   TEMP    WIND        PRES    SWELL
                          AIR SEA DIR/SP/G            HT/PER/DIR
                          (F)     (DEG/KT/KT) (MB)    (FT/S/D)
TANNER BANKS               67 68  330/ 10/ 12 1013.7F   8/320/12
S CLEMENTE BASIN           69 71  320/  4/  6 1013.5F   5/300/14
SAN NICOLAS IS.               66                N/A     7/300/13
SO. S. ROSA ISLA           65 68  330/ 14/ 16 1012.6F   7/13
W. S. BARBARA CH           65 64  330/ 10/ 12 1012.8F   8/310/12
S. MONICA BASIN            68 72  170/  4/  6 1013.0F   5/260/ 9
S PEDRO CHANNEL               70                N/A     3/270/12
DANA POINT                    70                N/A     2/290/11
CMP PENDLETON NS              70                N/A     2/250/11
OCEANSIDE OFFSHR              71                N/A     2/270/11
TORREY PINES OTR              72                N/A     2/280/13
LA JOLLA 1                 63 70  120/  3/  3 1013.5F
MISSION BAY BUOY              72                N/A     3/270/13
SAN DIEGO BAY                 74              1014.0F
POINT LOMA SOUTH              72                N/A     3/290/13

$$




USA.gov is the U.S. government's official web portal to all federal, state and local government web resources and services.